Precipitable_Water
0.29 0.29 0.31 0.34 0.37 0.38 0.40 0.42 0.49 0.59 0.80 0.95 1.05 1.13 1.18 1.24 1.30 1.35 1.40 1.48 1.53 1.53
0.29 0.30 0.32 0.36 0.40 0.40 0.43 0.45 0.48 0.54 0.65 0.83 0.98 1.07 1.09 1.16 1.26 1.31 1.35 1.45 1.50 1.46
0.28 0.31 0.35 0.40 0.40 0.43 0.45 0.46 0.45 0.48 0.56 0.67 0.89 0.99 1.07 1.11 1.21 1.29 1.32 1.42 1.40 1.41
0.31 0.34 0.38 0.41 0.43 0.46 0.46 0.43 0.42 0.44 0.50 0.57 0.73 0.90 0.96 1.07 1.16 1.18 1.24 1.35 1.39 1.35
0.35 0.38 0.40 0.42 0.44 0.47 0.44 0.43 0.42 0.43 0.47 0.52 0.63 0.80 0.92 1.02 1.11 1.14 1.17 1.25 1.28 1.26
0.36 0.41 0.40 0.43 0.45 0.46 0.43 0.41 0.40 0.41 0.42 0.46 0.54 0.67 0.84 0.93 1.02 1.08 1.13 1.17 1.17 1.21
0.35 0.39 0.41 0.42 0.44 0.44 0.43 0.41 0.39 0.39 0.40 0.43 0.47 0.54 0.67 0.82 0.92 0.96 1.03 1.06 1.12 1.15
0.32 0.39 0.42 0.42 0.42 0.43 0.41 0.40 0.38 0.38 0.38 0.40 0.42 0.45 0.50 0.61 0.76 0.86 0.93 1.00 1.05 1.09
0.29 0.35 0.40 0.39 0.39 0.38 0.37 0.36 0.37 0.36 0.36 0.36 0.37 0.40 0.43 0.48 0.53 0.67 0.82 0.87 0.92 0.99
0.26 0.30 0.34 0.38 0.36 0.35 0.33 0.33 0.33 0.35 0.34 0.34 0.33 0.35 0.38 0.41 0.45 0.46 0.54 0.70 0.81 0.87
0.24 0.27 0.29 0.32 0.32 0.32 0.30 0.27 0.30 0.32 0.34 0.34 0.31 0.31 0.34 0.38 0.42 0.42 0.42 0.47 0.56 0.68
0.24 0.27 0.27 0.27 0.28 0.29 0.27 0.25 0.24 0.29 0.32 0.32 0.33 0.30 0.31 0.35 0.38 0.39 0.40 0.41 0.41 0.46
0.24 0.26 0.26 0.26 0.25 0.26 0.24 0.22 0.22 0.22 0.28 0.28 0.32 0.29 0.29 0.31 0.33 0.34 0.36 0.39 0.40 0.39
0.24 0.28 0.27 0.25 0.25 0.23 0.22 0.21 0.21 0.21 0.21 0.23 0.25 0.29 0.27 0.28 0.29 0.29 0.31 0.31 0.33 0.34
Wind_Speed
16 21 25 28 30 30 31 31 31 30 29 31 31 28 26 28 29 28 27 29 30 29
13 18 22 25 27 29 30 30 31 31 27 30 30 29 29 26 26 27 27 28 27 26
9 14 19 22 24 27 28 29 30 30 29 27 30 31 27 25 24 23 25 27 27 27
2 9 14 18 21 24 26 27 28 30 30 27 27 29 29 29 23 21 23 27 25 27
4 3 10 15 19 22 24 25 26 29 30 26 25 27 28 27 23 21 23 21 22 25
10 5 6 12 17 19 22 24 25 27 29 28 27 27 27 28 27 23 22 22 23 18
13 10 4 7 14 18 20 22 23 25 27 29 28 27 30 28 29 27 25 25 23 23
18 13 8 1 8 15 18 20 22 24 26 28 29 28 28 30 31 30 30 29 27 22
20 18 13 7 1 9 15 18 21 22 24 26 29 29 30 30 30 31 32 32 31 31
19 19 18 13 6 3 9 15 19 21 23 25 27 29 30 31 32 31 31 33 34 34
18 18 16 17 14 7 4 10 16 19 22 24 25 27 30 32 33 33 33 32 33 35
19 18 16 15 15 15 9 3 10 16 19 22 24 25 27 30 33 34 34 33 32 34
18 17 16 15 14 13 13 11 4 9 15 19 22 23 25 28 31 33 35 35 35 33
16 16 15 15 14 13 12 10 10 7 6 13 18 21 23 26 28 30 32 35 36 36
Wind_Direction
240 230 225 223 224 224 224 223 222 222 221 221 222 221 225 224 224 226 226 224 221 223
243 230 223 222 222 222 221 221 219 220 223 222 221 221 224 223 224 224 224 219 219 217
251 226 221 219 221 220 220 219 219 219 220 220 220 219 220 219 220 221 220 217 216 214
258 221 219 218 217 217 217 218 218 217 218 219 220 218 220 219 221 225 221 215 211 211
6 246 222 217 216 215 216 218 218 216 218 218 217 216 219 217 216 222 217 211 209 208
25 5 232 221 214 214 216 217 217 217 217 219 220 220 219 219 217 219 217 213 208 211
26 24 4 225 218 215 215 216 219 219 219 220 221 223 223 220 221 223 220 218 217 216
29 27 25 2 220 217 219 220 220 221 221 221 222 225 226 226 228 228 228 226 223 226
30 31 30 29 254 222 223 224 223 223 224 225 226 230 232 232 231 232 233 232 231 231
28 30 33 31 22 263 233 230 229 228 228 229 231 234 235 235 235 234 235 236 236 236
25 27 30 32 31 17 275 239 232 233 233 234 235 238 238 238 237 237 239 239 239 241
26 26 27 27 28 30 22 303 243 236 237 239 240 242 241 241 239 239 240 240 242 243
23 25 25 24 22 22 25 26 349 253 244 242 243 246 246 245 242 242 242 242 243 245
16 18 20 21 18 17 14 14 16 7 285 254 249 248 249 248 246 246 245 245 245 245